Time,TemperatureF,DewpointF,PressureIn,WindDirection,WindDirectionDegrees,WindSpeedMPH,WindSpeedGustMPH,Humidity,HourlyPrecipIn,Conditions,Clouds,dailyrainin,SoftwareType,DateUTC
2013-07-01 00:02:00,77.0,47.0,-100.00,ESE,119,5.0,6.0,35,0.00,,,0.00,,2013-07-01 06:02:00,
2013-07-01 00:12:00,72.0,51.0,-100.00,SE,130,4.0,6.0,46,0.00,,,0.00,,2013-07-01 06:12:00,
2013-07-01 00:43:00,70.0,51.0,-100.00,SE,133,4.0,6.0,50,0.00,,,0.00,,2013-07-01 06:43:00,
2013-07-01 01:01:00,70.0,51.0,-100.00,SE,133,4.0,6.0,50,0.00,,,0.00,,2013-07-01 07:01:00,
2013-07-01 01:11:00,69.0,51.0,-100.00,SE,141,6.0,7.0,52,0.00,,,0.00,,2013-07-01 07:11:00,
2013-07-01 01:22:00,70.0,47.0,-100.00,SE,133,6.0,8.0,43,0.00,,,0.00,,2013-07-01 07:22:00,
2013-07-01 01:33:00,70.0,47.0,-100.00,SE,133,6.0,8.0,43,0.00,,,0.00,,2013-07-01 07:33:00,
2013-07-01 01:43:00,68.0,49.0,-100.00,SE,134,7.0,9.0,50,0.00,,,0.00,,2013-07-01 07:43:00,
2013-07-01 01:53:00,68.0,49.0,-100.00,SE,134,7.0,9.0,50,0.00,,,0.00,,2013-07-01 07:53:00,
2013-07-01 02:01:00,65.0,53.0,-100.00,North,8,4.0,8.0,65,0.00,,,0.00,,2013-07-01 08:01:00,
2013-07-01 02:11:00,68.0,51.0,-100.00,ESE,112,2.0,2.0,56,0.00,,,0.00,,2013-07-01 08:11:00,
2013-07-01 02:22:00,72.0,52.0,-100.00,ESE,123,4.0,6.0,49,0.00,,,0.00,,2013-07-01 08:22:00,
2013-07-01 02:33:00,72.0,52.0,-100.00,ESE,123,4.0,6.0,49,0.00,,,0.00,,2013-07-01 08:33:00,
2013-07-01 02:42:00,66.0,53.0,-100.00,SSE,152,4.0,6.0,64,0.00,,,0.00,,2013-07-01 08:42:00,
2013-07-01 03:02:00,65.0,53.0,-100.00,NNE,27,1.0,2.0,64,0.00,,,0.00,,2013-07-01 09:02:00,
2013-07-01 03:11:00,65.0,49.0,-100.00,SW,234,3.0,4.0,57,0.00,,,0.00,,2013-07-01 09:11:00,
2013-07-01 03:33:00,66.0,49.0,-100.00,South,184,2.0,3.0,53,0.00,,,0.00,,2013-07-01 09:33:00,
2013-07-01 03:43:00,67.0,49.0,-100.00,SE,136,1.0,2.0,53,0.00,,,0.00,,2013-07-01 09:43:00,
2013-07-01 04:03:00,66.0,47.0,-100.00,SE,124,4.0,5.0,51,0.00,,,0.00,,2013-07-01 10:03:00,
2013-07-01 04:11:00,66.0,47.0,-100.00,SE,124,4.0,5.0,51,0.00,,,0.00,,2013-07-01 10:11:00,
2013-07-01 04:22:00,66.0,47.0,-100.00,SE,124,4.0,5.0,51,0.00,,,0.00,,2013-07-01 10:22:00,
2013-07-01 04:33:00,60.0,51.0,-100.00,SE,130,6.0,9.0,74,0.00,,,0.00,,2013-07-01 10:33:00,
2013-07-01 04:42:00,63.0,50.0,-100.00,WNW,294,2.0,4.0,61,0.00,,,0.00,,2013-07-01 10:42:00,
2013-07-01 04:52:00,67.0,45.0,-100.00,SE,124,2.0,4.0,44,0.00,,,0.00,,2013-07-01 10:52:00,
2013-07-01 05:02:00,67.0,45.0,-100.00,SE,124,2.0,4.0,44,0.00,,,0.00,,2013-07-01 11:02:00,
2013-07-01 05:11:00,65.0,46.0,-100.00,ESE,116,2.0,4.0,51,0.00,,,0.00,,2013-07-01 11:11:00,
2013-07-01 05:33:00,64.0,48.0,-100.00,SE,133,3.0,4.0,56,0.00,,,0.00,,2013-07-01 11:33:00,
2013-07-01 05:43:00,62.0,49.0,-100.00,ENE,69,1.0,1.0,60,0.00,,,0.00,,2013-07-01 11:43:00,
2013-07-01 06:01:00,61.0,50.0,-100.00,NNW,344,1.0,2.0,67,0.00,,,0.00,,2013-07-01 12:01:00,
2013-07-01 06:11:00,61.0,51.0,-100.00,West,271,1.0,2.0,68,0.00,,,0.00,,2013-07-01 12:11:00,
2013-07-01 06:33:00,62.0,48.0,-100.00,SE,138,3.0,3.0,60,0.00,,,0.00,,2013-07-01 12:33:00,
2013-07-01 06:43:00,61.0,48.0,-100.00,SE,127,4.0,5.0,61,0.00,,,0.00,,2013-07-01 12:43:00,
2013-07-01 06:53:00,61.0,48.0,-100.00,SE,127,4.0,5.0,61,0.00,,,0.00,,2013-07-01 12:53:00,
2013-07-01 07:01:00,60.0,49.0,-100.00,SE,138,5.0,6.0,66,0.00,,,0.00,,2013-07-01 13:01:00,
2013-07-01 07:12:00,59.0,50.0,-100.00,SSE,165,3.0,3.0,72,0.00,,,0.00,,2013-07-01 13:12:00,
2013-07-01 07:23:00,59.0,50.0,-100.00,SSE,165,3.0,3.0,72,0.00,,,0.00,,2013-07-01 13:23:00,
2013-07-01 07:33:00,62.0,50.0,-100.00,WNW,298,1.0,2.0,66,0.00,,,0.00,,2013-07-01 13:33:00,
2013-07-01 07:43:00,63.0,49.0,-100.00,SSW,199,1.0,1.0,58,0.00,,,0.00,,2013-07-01 13:43:00,
2013-07-01 07:53:00,63.0,49.0,-100.00,SSW,199,1.0,1.0,58,0.00,,,0.00,,2013-07-01 13:53:00,
2013-07-01 08:01:00,62.0,52.0,-100.00,SE,138,3.0,4.0,70,0.00,,,0.00,,2013-07-01 14:01:00,
2013-07-01 08:11:00,65.0,55.0,-100.00,SE,131,2.0,3.0,69,0.00,,,0.00,,2013-07-01 14:11:00,
2013-07-01 08:22:00,65.0,55.0,-100.00,SE,131,2.0,3.0,69,0.00,,,0.00,,2013-07-01 14:22:00,
2013-07-01 08:34:00,65.0,55.0,-100.00,SE,131,2.0,3.0,69,0.00,,,0.00,,2013-07-01 14:34:00,
2013-07-01 08:43:00,68.0,57.0,-100.00,North,7,4.0,5.0,68,0.00,,,0.00,,2013-07-01 14:43:00,
2013-07-01 09:02:00,69.0,56.0,-100.00,North,1,3.0,4.0,62,0.00,,,0.00,,2013-07-01 15:02:00,
2013-07-01 09:11:00,71.0,57.0,-100.00,NNE,23,4.0,5.0,61,0.00,,,0.00,,2013-07-01 15:11:00,
2013-07-01 09:23:00,71.0,57.0,-100.00,NNE,23,4.0,5.0,61,0.00,,,0.00,,2013-07-01 15:23:00,
2013-07-01 09:33:00,71.0,57.0,-100.00,NNE,23,4.0,5.0,61,0.00,,,0.00,,2013-07-01 15:33:00,
2013-07-01 09:43:00,73.0,58.0,-100.00,North,350,4.0,5.0,58,0.00,,,0.00,,2013-07-01 15:43:00,
2013-07-01 10:01:00,75.0,60.0,-100.00,North,10,6.0,7.0,58,0.00,,,0.00,,2013-07-01 16:01:00,
2013-07-01 10:22:00,78.0,60.0,-100.00,NE,34,9.0,11.0,54,0.00,,,0.00,,2013-07-01 16:22:00,
2013-07-01 10:33:00,78.0,60.0,-100.00,NE,34,9.0,11.0,54,0.00,,,0.00,,2013-07-01 16:33:00,
2013-07-01 10:44:00,78.0,60.0,-100.00,NE,34,9.0,11.0,54,0.00,,,0.00,,2013-07-01 16:44:00,
2013-07-01 21:24:00,82.0,55.0,-100.00,NNE,17,5.0,7.0,39,0.00,,,0.00,,2013-07-02 03:24:00,
2013-07-01 21:32:00,82.0,55.0,-100.00,NNE,17,5.0,7.0,39,0.00,,,0.00,,2013-07-02 03:32:00,
2013-07-01 21:43:00,81.0,55.0,-100.00,NE,35,5.0,6.0,41,0.00,,,0.00,,2013-07-02 03:43:00,
2013-07-01 22:01:00,80.0,57.0,-100.00,NNE,30,7.0,9.0,46,0.00,,,0.00,,2013-07-02 04:01:00,
2013-07-01 22:21:00,81.0,54.0,-100.00,NE,45,7.0,9.0,39,0.00,,,0.00,,2013-07-02 04:21:00,
2013-07-01 22:32:00,81.0,54.0,-100.00,NE,45,7.0,9.0,39,0.00,,,0.00,,2013-07-02 04:32:00,
2013-07-01 22:42:00,81.0,54.0,-100.00,NE,45,7.0,9.0,39,0.00,,,0.00,,2013-07-02 04:42:00,
2013-07-01 23:01:00,81.0,49.0,-100.00,East,85,3.0,6.0,33,0.00,,,0.00,,2013-07-02 05:01:00,
2013-07-01 23:11:00,78.0,55.0,-100.00,SE,126,4.0,5.0,44,0.00,,,0.00,,2013-07-02 05:11:00,
2013-07-01 23:32:00,82.0,50.0,-100.00,ESE,110,5.0,7.0,33,0.00,,,0.00,,2013-07-02 05:32:00,
2013-07-01 23:43:00,76.0,57.0,-100.00,SE,144,2.0,4.0,51,0.00,,,0.00,,2013-07-02 05:43:00,